THOR ABLESTAR DEB, 657

Orbit data source: Space-Track

THOR ABLESTAR DEB, 657 is space debris in LEO originally from a launch on Thu, 29 Jun 1961 UTC launched from the Air Force Eastern Test Range (AFETR). Debris objects in space refer to the collection of defunct objects orbiting the Earth. Examples of debris include non-operational satellites, rocket bodies, and fragments generated from explosions, collisions, or faulty payload assembly.

Loading next visibility...
THOR ABLESTAR DEB details
Identifier
657, 1961-015HJ
Orbit
LEO
Last TLE update18 hours ago
Origin
Flag of USUSAF SSD (US)
ManufacturerUnknown
MissionSpacecraft
Bus & MotorUnknown
MassUnknown
Launch date (UTC)
1961-06-29 (64 years ago)
Launch vehicleUnknown
Launch site
Air Force Eastern Test Range (AFETR)
Object type
Payload
Rocket body
Debris
Shape & HBRUnknown
Radar Cross SectionSmall (<0.1 m²)

Expand to show TLE details & history

TLE from 18 hours ago
0 THOR ABLESTAR DEB
1 00657U 61015HJ  25014.51527005  .00000343  00000-0  86261-3 0  9994
2 00657  66.2178  51.8919 0341205 290.3293 196.8592 13.11545103 36593
Epoch: 2025-01-14T12:21Z
Definitive object data (Epoch: 2025-01-14T12:21:59.332Z)
Latitude47.78432°
Longitude-96.732°
Altitude1,472.472 km
Speed7.014 km/s
True Right ascension13h 31m 56s
True Declination47° 37' 43"
Sunlit
Object was in daylight at TLE epoch
Visualization TLE readout
Latitude33.5592°
Longitude-86.41187°
Altitude1,435.354 km
Speed7.045 km/s
Apparent Right ascension16h 22m 55s
Apparent Declination1° 27' 53"
Sunlit
Object is in daylight
Visualization observer readout
Local Sidereal Time07:24:56
Azimuth56.656° ENE
Elevation-31.398°
Doppler factor1
Orbital elements
Apogee altitude1,474.811 km
Perigee altitude956.6 km
Semi-major axis7,593.842 km
Eccentricity0.0341205
Inclination66.2178°
RAAN51.8919°
Arg. of periapsis290.3293°
True anomaly195.76984°
Mean anomaly196.8592°
Eccentric anomaly196.31017°
Mean motion3.27983 °/min
BSTAR0.00086261
Orbital period109.76 mins
Loading maneuver chart data...

THOR ABLESTAR DEB Visibility forecast

Observer location: undefined°, undefined

Span
Click to sort rows by Start time (UTC) header in descending order
Start Az.
Max El. time (UTC)
Max El. Az.
Max El.
End time (UTC)
End Az.
9 mins2025-01-15 10:10:30.641Z356.569° N2025-01-15 10:14:30.641Z25.453° NE15.516°2025-01-15 10:19:30.641Z60.256° ENE
15 mins2025-01-15 12:03:30.641Z343.443° N2025-01-15 12:10:30.641Z53.278° ENE35.852°2025-01-15 12:18:30.641Z121.769° SE
15 mins2025-01-15 13:56:30.641Z317.096° NNW2025-01-15 14:03:30.641Z252.991° W36.594°2025-01-15 14:11:30.641Z180.043° SSW
10 mins2025-01-16 02:15:30.641Z140.395° SSE2025-01-16 02:19:30.641Z103.344° ESE21.214°2025-01-16 02:25:30.641Z55.267° ENE
14 mins2025-01-16 04:05:30.641Z217.169° SW2025-01-16 04:11:30.641Z276.987° WNW43.928°2025-01-16 04:19:30.641Z26.876° NE
10 mins2025-01-16 06:02:30.641Z288.664° WNW2025-01-16 06:06:30.641Z323.663° NNW20.816°2025-01-16 06:12:30.641Z10.556° NNE
|